Home > Time Zones > World Clock > Weather > Sweden > Lund > Past weeks

Flag for Sweden Weather past 2 weeks in Lund, Sweden

Now
59 °F

Partly sunny.


Feels Like: 58 °F
Forecast: 57 / 68 °F
Wind: 8 mph from Northwest

Location: Malmo / Sturup

Current Time: Aug 28, 2015 at 7:14:21 PM

Latest Report: Aug 28, 2015 at 6:20 PM


Visibility: N/A

Pressure: 30.01 "Hg

Humidity: 88%

Dew point: 55 °F

Location of LundLocation

Historic Weather in Lund — Graph

°F

Lund temperature yesterday

Maximum temperature yesterday: 68 °F (at 8:20 AM)
Minimum temperature yesterday: 55 °F (at 10:20 PM)
Average temperature yesterday: 64 °F

Past Weeks' High & Low Weather Summary

 TemperatureHumidityPressure
High77 °F (Aug 15, 2:20 PM)100% (Aug 22, 5:20 AM)30.36 "Hg (Aug 22, 5:20 AM)
Low48 °F (Aug 22, 5:20 AM)29% (Aug 20, 1:50 PM)29.71 "Hg (Aug 25, 1:50 AM)
Average65 °F74%30.02 "Hg
* Reported Aug 13 5:20 PM — Aug 28 5:50 PM, Lund, Weather by CustomWeather, © 2015

Note: Actual official high and low records may vary slightly from our data, if they occured in-between our weather recording intervals... More about our weather records

Advertising

Lund weather history for previous 24 hours

 ConditionsComfort  
Time TempWeatherWind HumidityBarometerVisibility
5:50 PM
Fri, Aug 28
59 °FSprinkles. Broken clouds.12 mph88%30.01 "HgN/A
5:20 PM64 °FScattered showers. Broken clouds.15 mph64%29.98 "HgN/A
4:50 PM68 °FPartly sunny.16 mph53%29.98 "HgN/A
4:20 PM68 °FScattered clouds.14 mph53%29.98 "HgN/A
3:50 PM70 °FScattered clouds.13 mph43%29.98 "HgN/A
3:20 PM70 °FScattered clouds.16 mph50%29.95 "HgN/A
2:50 PM70 °FScattered clouds.16 mph50%29.95 "HgN/A
2:20 PM68 °FPassing clouds.17 mph53%29.95 "HgN/A
1:50 PM66 °FScattered clouds.15 mph56%29.95 "HgN/A
1:20 PM64 °FScattered clouds.16 mph60%29.95 "HgN/A
12:50 PM66 °FScattered clouds.15 mph60%29.92 "HgN/A
12:20 PM66 °FBroken clouds.14 mph56%29.92 "HgN/A
11:50 AM66 °FPassing clouds.13 mph64%29.92 "HgN/A
11:20 AM64 °FScattered clouds.14 mph68%29.92 "HgN/A
10:50 AM64 °FScattered clouds.13 mph68%29.89 "HgN/A
10:20 AM63 °FScattered clouds.13 mph77%29.89 "HgN/A
9:50 AM63 °FBroken clouds.12 mph83%29.89 "HgN/A
9:20 AM61 °FPartly sunny.10 mph88%29.86 "HgN/A
8:50 AM61 °FScattered clouds.13 mph88%29.86 "HgN/A
8:20 AM59 °FScattered clouds.10 mph94%29.86 "HgN/A
7:50 AM57 °FPassing clouds.7 mph94%29.83 "HgN/A
7:20 AM57 °FScattered clouds.8 mph94%29.83 "HgN/A
6:50 AM57 °FPassing clouds.8 mph94%29.83 "HgN/A
5:50 AM57 °FPassing clouds.8 mph100%29.80 "HgN/A
5:20 AM57 °FPartly cloudy.12 mph100%29.80 "Hg3 mi
4:50 AM57 °FPassing clouds.9 mph94%29.80 "HgN/A
4:20 AM57 °FPartly cloudy.9 mph94%29.80 "HgN/A
3:50 AM57 °FClear.7 mph94%29.80 "Hg10 mi
3:20 AM57 °FClear.8 mph94%29.80 "Hg10 mi
2:50 AM57 °FClear.6 mph94%29.77 "Hg10 mi
2:20 AM57 °FClear.7 mph94%29.77 "Hg10 mi
1:50 AM57 °FLight rain. Passing clouds.7 mph94%29.80 "HgN/A
1:20 AM57 °FPassing clouds.7 mph94%29.80 "HgN/A
12:20 AM57 °FPassing clouds.8 mph94%29.80 "HgN/A
11:50 PM
Thu, Aug 27
55 °FPassing clouds.7 mph100%29.80 "HgN/A
11:20 PM57 °FLight rain. Mostly cloudy.8 mph94%29.80 "HgN/A
10:50 PM55 °FLight rain. Passing clouds.6 mph94%29.80 "HgN/A
10:20 PM55 °FLight rain. Partly cloudy.6 mph94%29.80 "HgN/A
9:50 PM57 °FLight rain. Passing clouds.7 mph88%29.80 "HgN/A
9:20 PM57 °FLight rain. Passing clouds.10 mph88%29.80 "HgN/A
8:50 PM59 °FLight rain. Overcast.10 mph88%29.80 "HgN/A
8:20 PM61 °FLight rain. Broken clouds.9 mph88%29.80 "Hg5 mi
7:50 PM63 °FSunny.10 mph83%29.80 "Hg10 mi
7:20 PM64 °FSunny.12 mph73%29.80 "Hg10 mi
Weather by CustomWeather, © 2015

See weather overviewHow to use our weather pages